Terminal Aerodrome Forecast
Issued by NWS Dodge City, KS

Home | Current Version | Previous Version | Graphics & Text | Print | Product List | Glossary Off
Versions: 1 2 3 4 5 6 7 8 9 10 11 12 13 14 15 16 17 18 19 20 21 22 23 24 25 26 27 28 29 30 31 32 33 34 35 36 37 38 39 40 41 42 43 44 45 46 47 48 49 50

474
FTUS43 KDDC 282226 AAE
TAFDDC
TAF AMD
KDDC 282226Z 2822/2918 03007KT 1 1/2SM RA VCTS FEW018 BKN050
      OVC070CB
     FM290000 04022G32KT 1SM -RA OVC003=

USA.gov is the U.S. government's official web portal to all federal, state and local government web resources and services.